Regional Weather Roundup
Issued by NWS

Home | Current Version | Previous Version | Text Only | Print | Product List | Glossary On
Versions: 1 2 3 4 5 6 7 8 9 10 11 12 13 14 15 16 17 18 19 20 21 22 23 24 25 26 27 28 29 30 31 32 33 34 35 36 37 38 39 40 41 42 43 44 45 46 47 48 49 50
000
ASUS43 KLSX 202359
RWRMO

WEATHER SUMMARY FOR MISSOURI
NATIONAL WEATHER SERVICE SPRINGFIELD MO
600 PM CST THU NOV 20 2014

NOTE: "FAIR" INDICATES FEW OR NO CLOUDS BELOW 12,000 FEET WITH NO
       SIGNIFICANT WEATHER AND/OR OBSTRUCTIONS TO VISIBILITY.
       CURRENT SKY AND/OR WEATHER CONDITIONS ARE NOT AVAILABLE FOR
       CHILLICOTHE AND FARMINGTON.

MOZ001>031-035>038-043-044-053-054-210100-
...NORTHERN AND WESTERN MISSOURI...

CITY           SKY/WX    TMP DP  RH WIND       PRES   REMARKS
KANSAS CTY INT CLEAR     31  18  58 NE8       30.21R WCI  23
6HR MIN TEMP:  31; 6HR MAX TEMP:  39;

KANSAS C DTWN  CLEAR     34  18  52 NE7       30.21R WCI  28
6HR MIN TEMP:  34; 6HR MAX TEMP:  42;

LEE`S SUMMIT   CLEAR     34  18  52 NE6       30.21R WCI  29
6HR MIN TEMP:  33; 6HR MAX TEMP:  40;

ST JOSEPH      CLEAR     25  16  68 NE6       30.24R WCI  18
6HR MIN TEMP:  24; 6HR MAX TEMP:  36;

CHILLICOTHE      N/A     27  16  63 CALM      30.25R
6HR MIN TEMP:  27; 6HR MAX TEMP:  38;

KIRKSVILLE     CLEAR     25  14  63 N5        30.23R WCI  19
6HR MIN TEMP:  25; 6HR MAX TEMP:  35;


$$
MOZ066>068-077>081-088>096-101>105-210100-
...SOUTHWEST MISSOURI...

CITY           SKY/WX    TMP DP  RH WIND       PRES   REMARKS
SPRINGFIELD    CLEAR     41  23  48 NE9       30.14R
6HR MIN TEMP:  41; 6HR MAX TEMP:  50;

JOPLIN         CLEAR     41  25  53 VRB7      30.14R
6HR MIN TEMP:  41; 6HR MAX TEMP:  50;


$$
MOZ032>034-039>042-045>050-055>058-069>072-210100-
...CENTRAL MISSOURI...

CITY           SKY/WX    TMP DP  RH WIND       PRES   REMARKS
COLUMBIA       CLEAR     29  18  63 N8        30.22R WCI  21
6HR MIN TEMP:  29; 6HR MAX TEMP:  40;

JEFFERSON CITY CLEAR     35  20  54 N3        30.23R
6HR MIN TEMP:  35; 6HR MAX TEMP:  41;

ROLLA          MIX PCPN  32  20  61 CALM      30.18R
6HR MIN TEMP:  28; 6HR MAX TEMP:  41; 6HR PCP: TRACE;

SEDALIA        CLEAR     34  18  52 N6        30.22R WCI  29
6HR MIN TEMP:  33; 6HR MAX TEMP:  42;

WARRENSBURG    CLEAR     32  19  59 NE5       30.22R WCI  27
OSAGE BEACH    CLEAR     36  19  51 NE5       30.20R

$$
MOZ051-052-059>065-210100-
...EAST CENTRAL MISSOURI...

CITY           SKY/WX    TMP DP  RH WIND       PRES   REMARKS
ST LOUIS INTL  PTCLDY    33  18  53 NW3       30.24R
6HR MIN TEMP:  33; 6HR MAX TEMP:  40;

SPIRIT OF STL  CLEAR     28  20  71 CALM      30.23R
6HR MIN TEMP:  28; 6HR MAX TEMP:  39;

ST CHARLES     CLEAR     30  19  63 CALM      30.24R
6HR MIN TEMP:  30; 6HR MAX TEMP:  38;


$$
MOZ072>076-082>087-097>100-106>115-210100-
...SOUTH CENTRAL AND SOUTHEAST MISSOURI...

CITY           SKY/WX    TMP DP  RH WIND       PRES   REMARKS
CAPE GIRARDEAU CLEAR     33  26  75 S5        30.24R WCI  29
6HR MIN TEMP:  33; 6HR MAX TEMP:  42;

FARMINGTON     CLEAR     37  19  48 CALM      30.21S
6HR MIN TEMP:  37; 6HR MAX TEMP:  45;

POPLAR BLUFF   CLOUDY    39  26  59 S5        30.22R
6HR MIN TEMP:  38; 6HR MAX TEMP:  46;

WEST PLAINS    CLOUDY    46  21  37 SE5       30.17S
6HR MIN TEMP:  44; 6HR MAX TEMP:  50;


$$


USA.gov is the U.S. government's official web portal to all federal, state and local government web resources and services.